Regional Weather Roundup
Issued by NWS Jackson, KY

Home | Current Version | Previous Version | Graphics & Text | Print | Product List | Glossary On
Versions: 1 2 3 4 5 6 7 8 9 10 11 12 13 14 15 16 17 18 19 20 21 22 23 24 25 26 27 28 29 30 31 32 33 34 35 36 37 38 39 40 41 42 43 44 45 46 47 48 49 50
000
ASUS43 KJKL 010910
RWRJKL

EAST KENTUCKY HOURLY WEATHER ROUNDUP
NATIONAL WEATHER SERVICE JACKSON KY
500 AM EDT SAT AUG 01 2015

NOTE: "FAIR" INDICATES FEW OR NO CLOUDS BELOW 12,000 FEET WITH
NO SIGNIFICANT WEATHER AND/OR OBSTRUCTIONS TO VISIBILITY.

* THESE REPORTS ARE NOT UNDER NWS QUALITY CONTROL AND MAY NOT
  REPORT WEATHER SUCH AS PRECIPITATION AND FOG.

KYZ079-080-083-085-087-088-110-112-115-119-120-011000
...EASTERN KENTUCKY...

CITY           SKY/WX    TMP DP  RH WIND       PRES   REMARKS
JACKSON        CLEAR     64  61  90 CALM      30.02F
LONDON         CLEAR     63  59  87 CALM      30.04S
SOMERSET*      CLEAR     61  61 100 CALM      30.04S
MONTICELLO*    CLEAR     61  61 100 CALM      30.06F
WILLIAMSBURG*  CLEAR     59  59 100 CALM      30.04F
MIDDLESBORO*   CLEAR     60  59  98 CALM      30.06F
HAZARD APT*    SUNNY     64  63  94 SW3       30.03S
BLACK MTN*       N/A     61  57  88 CALM        N/A
PIKEVILLE APT* PTCLDY    66  61  82 CALM      30.02S
BIG SANDY*     SUNNY     66  62  86 SW3       30.01S
MOREHEAD APT*  SUNNY     64  61  88 S3        30.02S
$$

KYZ035-036-041-042-044-050-067-078-099-011000
...CENTRAL KENTUCKY...

CITY           SKY/WX    TMP DP  RH WIND       PRES   REMARKS
MT STERLING*   CLEAR     64  61  88 W3        30.01F
FLEMING/MASON* CLEAR     66  61  82 W6        30.00S
DANVILLE*      CLEAR     64  61  88 CALM      30.03S
RICHMOND*      CLEAR     68  59  73 CALM      30.01F
LEXINGTON      CLEAR     67  61  81 SW3       30.00F
FRANKFORT      CLEAR     64  61  90 NW3       29.99S
$$

KYZ091>093-OHZ055-061-077-WVZ005-015-034-035-042-011000
...SOUTHERN OHIO/WEST VIRGINIA...

CITY           SKY/WX    TMP DP  RH WIND       PRES   REMARKS
COVINGTON      CLEAR     64  60  87 W5        29.99S
COLUMBUS       CLEAR     67  61  81 CALM      29.94S
DAYTON         CLEAR     63  58  83 W7        29.98F
WILMINGTON     CLEAR     65  58  78 NW6       29.97F
HUNTINGTON     CLEAR     66  61  84 SW5       29.97S
CHARLESTON     PTCLDY    67  63  87 CALM      29.96S
PINEVILLE*     MOCLDY    59  59 100 MISG      30.08S
BECKLEY        CLEAR     63  56  78 S7        30.05S
BLUEFIELD      CLEAR     63  55  75 W7        30.08F
$$

VAZ002-007-008-TNZ017-027-036-066-071-011000
...SOUTHWEST VIRGINIA/EAST TENNESSEE...

CITY           SKY/WX    TMP DP  RH WIND       PRES   REMARKS
WISE*          CLEAR     63  55  77 W3        30.10S
ABINGDON*      CLEAR     60  58  91 CALM      30.07S
BRISTOL        CLEAR     59  58  96 CALM      30.05S
KNOXVILLE      CLEAR     65  61  87 NE3       30.01F
OAK RIDGE      CLEAR     64  61  90 CALM      30.04S
CROSSVILLE     CLEAR     61  58  90 CALM      30.07F
NASHVILLE      CLEAR     68  65  90 CALM      30.01F
$$

...KEY TO REMARKS...
VSB - VISIBILITY IN MILES
WCI - WIND CHILL INDEX
HX  - HEAT INDEX

$$



USA.gov is the U.S. government's official web portal to all federal, state and local government web resources and services.